Theta_e
281 281 281 282 282 282 281 282 282 282 282 282 281 282 282 281 280 279 278 278 277 277 278 277 277 278 277 277 277 276 275 275 272 274 276 277 277 278 280 281 281 281 282
282 281 281 282 282 281 281 282 282 282 282 281 281 281 281 281 280 278 277 277 276 276 277 277 276 277 276 276 276 275 274 275 273 272 274 275 276 278 279 279 281 282 282
281 281 281 281 281 281 281 282 282 281 281 281 281 281 280 280 278 278 277 277 276 276 276 276 276 276 275 275 274 274 274 275 275 274 273 276 277 278 278 279 279 279 280
281 281 281 281 281 281 281 281 281 281 281 281 280 280 279 278 278 278 277 276 276 277 277 277 276 275 274 274 274 274 275 275 275 274 274 274 276 276 276 275 275 278 278
280 280 281 282 281 281 281 281 281 281 281 280 280 278 277 277 278 277 277 277 276 276 277 276 276 276 277 277 276 275 275 274 274 274 273 273 273 274 274 274 274 275 275
280 280 281 281 281 281 281 281 280 280 280 279 278 277 276 277 279 280 279 277 277 276 274 275 275 275 276 277 278 278 277 275 273 273 272 273 272 273 274 274 274 273 271
280 280 281 280 280 280 280 280 279 278 278 277 276 275 274 274 277 278 279 277 276 275 274 274 274 275 275 275 276 277 277 277 278 275 272 272 272 274 276 274 274 274 274
280 280 280 280 279 280 279 279 278 277 274 272 271 271 271 273 277 277 278 276 275 274 274 274 274 274 274 274 274 274 275 275 275 276 276 275 275 276 277 275 273 272 272
278 278 278 279 278 278 275 275 276 274 273 271 272 269 270 271 275 276 276 274 273 273 274 274 274 273 275 276 274 272 272 274 276 277 277 278 278 277 276 272 269 268 267
277 277 275 274 275 273 272 271 272 272 271 271 270 271 270 270 273 275 275 273 271 272 272 273 275 273 275 276 274 273 271 270 271 273 269 270 271 270 272 270 269 266 266
274 272 271 271 270 271 270 270 269 268 268 264 266 267 268 269 270 273 275 274 272 271 271 271 272 274 275 276 277 272 270 273 272 263 264 264 264 265 266 267 268 267 264
271 270 268 268 270 270 268 266 266 266 263 261 262 263 266 268 270 272 274 275 274 271 270 271 272 274 276 275 273 272 273 272 263 261 261 261 262 263 264 265 265 265 266
270 269 267 268 269 269 267 265 263 263 262 262 264 264 265 267 268 272 272 273 273 272 272 272 274 273 272 269 269 270 267 261 260 260 259 260 262 263 263 263 263 264 264
270 268 268 267 266 266 268 268 264 262 261 264 263 264 264 266 266 267 268 269 272 271 271 269 268 268 267 266 260 262 261 261 260 259 260 261 262 261 261 262 261 262 261
269 268 269 268 267 266 265 264 266 265 266 262 260 263 264 264 266 271 271 269 269 271 270 258 259 258 258 258 258 259 259 259 259 259 259 260 260 260 260 262 261 261 260
268 268 267 266 265 264 263 261 266 268 268 269 270 268 267 269 270 271 271 272 272 270 261 253 255 255 255 256 257 257 258 258 259 259 259 259 259 259 260 261 261 261 260
267 266 265 264 263 261 260 260 255 259 264 265 266 266 267 268 268 269 270 270 267 264 247 253 253 254 255 256 257 257 257 258 259 258 258 259 259 259 259 260 260 261 261
263 263 262 261 260 258 258 258 257 253 250 253 259 263 264 265 267 267 268 262 253 254 246 250 252 254 255 256 256 257 257 257 257 258 258 259 259 259 259 259 260 260 261
261 260 259 258 257 256 255 253 253 249 246 245 248 255 257 262 263 264 263 248 249 250 251 252 253 254 255 256 256 257 257 257 257 257 258 258 259 259 259 260 260 261 261
258 258 257 255 253 253 250 248 247 246 246 244 245 247 249 249 249 252 250 246 247 249 252 252 253 255 255 256 256 257 256 257 257 258 258 259 259 260 260 260 260 261 262
258 256 255 253 251 247 246 245 245 244 243 242 246 248 262 255 249 250 250 250 251 251 253 254 254 255 256 256 257 257 257 257 257 258 258 259 259 259 260 261 261 262 262
255 253 251 250 246 246 243 243 243 242 242 242 246 245 258 246 247 248 249 250 251 253 255 255 255 256 257 257 257 257 257 257 257 258 258 259 260 260 260 261 261 262 263
253 250 248 243 242 243 242 240 241 240 241 242 244 246 247 247 248 249 250 251 252 254 256 257 257 257 258 258 259 259 258 258 259 259 259 259 260 260 261 262 263 264 265
251 250 247 242 240 239 239 240 239 241 242 243 243 244 246 248 249 250 251 252 253 255 256 257 257 257 258 258 259 260 260 261 261 261 261 261 262 263 263 265 269 270 271
249 246 244 242 240 240 239 239 239 238 240 242 245 243 246 247 249 250 251 252 253 254 256 257 257 258 258 258 258 259 260 261 262 264 264 264 265 267 269 270 270 271 271
246 245 241 239 239 238 238 239 240 240 242 244 245 245 247 248 250 250 251 252 253 254 254 256 257 257 258 258 259 261 263 265 265 266 268 270 270 270 270 270 270 271 271
Wind_Speed
8 7 7 7 8 6 6 7 7 6 6 6 6 6 6 5 4 3 5 6 6 7 7 8 10 8 7 7 7 8 9 9 13 18 15 15 16 17 15 15 16 16 13
9 7 9 7 7 7 7 8 6 7 5 6 6 6 5 5 5 5 5 6 7 8 9 9 11 8 11 10 8 11 10 12 12 18 20 15 16 15 17 17 13 13 14
8 7 7 8 7 8 8 7 6 6 7 6 6 6 5 5 5 5 6 7 8 8 8 9 11 10 12 10 10 10 11 11 12 12 17 15 14 14 13 12 14 16 14
7 7 8 8 9 8 7 6 6 5 6 6 6 6 5 5 5 6 6 6 8 9 9 10 10 11 12 12 12 13 12 12 12 13 14 15 12 14 14 13 13 9 13
8 8 9 9 7 6 6 6 5 5 6 5 5 5 5 4 5 5 6 7 9 11 10 11 11 11 19 19 12 13 14 13 12 13 14 15 14 12 10 14 16 15 12
8 9 7 6 6 6 6 6 5 6 5 5 5 4 4 4 9 12 12 9 10 11 12 12 11 13 14 23 25 27 23 16 16 14 15 14 18 16 13 13 15 14 18
8 7 7 6 6 6 6 5 6 5 3 5 4 3 4 4 11 13 15 9 10 10 11 12 13 11 13 14 20 26 24 25 26 21 20 17 20 16 16 19 18 17 15
8 7 6 6 6 5 5 6 4 2 3 2 2 2 2 5 12 14 15 10 9 10 11 12 14 15 13 18 18 18 16 16 18 14 14 18 20 19 17 16 19 20 16
7 7 5 5 5 5 3 3 3 3 2 2 2 2 3 5 12 14 13 9 10 12 12 12 13 14 20 26 19 19 19 16 14 27 31 30 30 34 29 16 12 13 15
7 6 4 4 4 3 3 3 2 2 2 1 1 2 5 6 10 13 12 7 10 9 10 12 16 16 26 28 19 17 14 16 18 17 10 17 21 18 24 14 11 13 13
5 4 3 3 4 3 4 2 2 2 2 1 3 4 5 6 7 13 15 9 8 10 10 9 9 22 27 30 27 14 18 24 18 9 12 11 11 12 10 9 10 11 12
5 5 4 4 3 3 4 2 2 3 0 3 3 4 3 5 9 11 15 18 19 12 11 9 11 26 30 26 23 29 30 24 9 9 10 10 10 11 10 11 14 13 13
7 5 4 4 3 4 4 3 2 2 0 3 3 3 4 3 4 12 17 20 20 14 10 19 31 23 23 17 21 26 17 8 8 9 10 11 10 11 14 13 13 14 15
7 6 5 5 4 2 2 2 2 1 1 2 3 4 5 5 4 4 7 8 13 12 17 10 13 16 18 17 8 11 7 8 9 10 11 12 12 11 11 10 12 12 12
7 6 5 4 4 4 3 3 1 2 3 2 3 3 5 7 6 17 17 11 11 14 13 5 8 8 8 9 9 8 7 8 9 9 10 11 12 11 12 10 10 11 12
8 6 5 5 3 3 3 3 5 5 8 10 12 10 6 16 21 22 23 23 23 24 7 5 7 7 8 8 9 11 10 10 9 9 10 10 11 12 12 12 10 10 12
8 7 6 5 4 4 3 2 2 5 9 9 12 14 16 17 20 21 22 21 22 19 2 6 7 8 9 9 9 9 11 11 12 10 10 11 11 11 13 12 12 11 12
8 9 6 5 5 4 3 2 1 0 2 4 9 14 14 18 19 20 20 15 9 7 2 5 8 8 9 9 10 10 11 11 10 11 11 11 11 11 12 12 12 13 13
8 6 6 5 5 4 3 3 1 0 1 3 4 9 8 17 17 16 17 1 4 8 7 7 7 9 9 10 10 10 11 12 12 12 11 11 12 11 13 13 13 18 18
8 11 7 5 4 3 2 2 1 2 2 2 3 3 6 4 5 7 4 3 4 6 7 8 9 9 10 10 10 10 11 11 12 11 12 12 12 11 13 14 14 14 14
7 6 8 5 4 3 3 2 1 1 2 3 4 4 17 4 5 6 7 7 7 7 8 8 9 10 10 10 10 10 11 12 12 12 12 12 12 13 13 14 15 15 15
7 6 5 4 3 3 2 2 1 0 2 3 5 4 16 3 5 6 7 7 7 8 8 9 9 10 10 11 11 11 12 13 13 12 12 13 13 14 14 15 15 15 15
7 7 5 3 3 3 3 1 1 1 3 4 4 5 5 5 6 6 7 8 8 9 9 9 10 11 11 11 11 11 12 13 13 13 14 15 15 15 15 16 17 17 15
7 6 6 4 3 2 2 0 1 3 3 4 4 5 5 6 7 8 8 8 8 9 10 10 10 14 14 14 12 12 13 14 13 14 19 16 16 19 17 17 17 18 16
6 6 5 4 4 3 1 1 2 3 3 4 5 4 5 6 7 8 8 8 9 9 12 12 11 14 17 22 22 24 23 25 21 22 16 19 21 23 19 15 18 16 19
5 5 4 3 3 3 2 1 3 3 4 5 5 5 6 7 8 8 8 9 9 10 15 11 14 21 23 19 21 24 26 28 25 28 21 17 16 15 16 19 22 15 17
Wind_Direction
218 217 221 229 232 229 231 238 234 249 235 240 245 248 241 254 259 271 269 268 269 285 285 280 284 287 288 290 289 286 284 285 287 294 291 299 298 292 290 289 288 286 287
221 209 223 226 229 231 235 243 238 247 248 243 247 244 243 248 267 265 269 280 276 283 284 284 288 294 292 292 292 291 289 289 283 287 291 299 294 295 286 285 286 288 287
211 214 227 230 232 235 239 243 240 238 248 249 231 231 237 244 255 254 250 264 269 271 274 281 288 292 292 295 292 290 288 285 281 278 289 295 296 298 298 295 286 286 285
205 213 226 226 226 231 235 241 243 234 245 243 228 232 234 249 260 263 271 267 268 274 277 277 282 286 287 292 293 288 288 291 291 288 287 294 301 302 285 291 292 292 303
209 211 223 233 229 236 246 251 251 240 240 236 226 226 239 250 263 257 260 271 283 289 289 290 285 284 289 289 290 295 297 294 292 293 294 296 292 294 319 300 292 302 295
205 219 223 224 236 236 245 248 249 250 235 216 222 233 260 273 284 286 290 288 291 292 293 295 295 288 286 294 296 297 295 298 295 294 287 299 304 291 300 293 290 295 297
206 216 221 221 231 233 240 243 251 246 211 219 234 257 267 265 286 289 293 293 293 291 293 297 298 294 297 295 299 295 294 287 293 295 292 288 291 293 301 298 288 285 290
199 214 214 212 230 244 248 253 258 213 191 198 234 249 256 280 293 298 299 292 290 290 293 293 292 297 299 300 295 294 295 288 284 284 289 300 291 293 296 307 308 300 292
204 212 205 192 228 241 235 244 211 175 164 193 226 245 262 272 296 299 300 295 292 289 291 292 290 293 294 298 298 301 293 290 310 306 300 302 309 306 303 303 293 294 295
205 211 175 188 199 200 203 186 145 130 172 149 273 261 265 272 293 298 301 291 288 291 291 289 287 295 298 303 299 294 309 315 309 302 320 306 306 301 305 295 295 291 294
149 175 150 150 168 154 134 120 121 116 82 342 273 269 271 281 292 303 298 290 292 295 294 298 294 296 302 300 309 322 311 307 318 322 308 299 298 296 296 291 287 286 288
136 133 128 122 111 128 130 104 96 110 108 294 290 286 262 266 283 297 299 305 306 298 294 296 296 294 305 317 321 310 308 322 316 305 298 296 298 298 298 296 290 280 270
125 126 122 124 131 133 131 147 110 91 200 287 290 300 300 278 255 300 309 306 304 301 298 300 306 319 323 319 305 311 324 308 300 301 298 296 296 296 298 295 291 285 278
129 137 134 135 134 124 118 122 119 155 304 287 292 296 299 305 302 283 284 284 294 307 293 304 325 324 318 315 309 305 295 292 291 292 291 293 296 299 296 296 297 304 299
123 130 140 139 136 128 102 111 77 267 249 245 240 255 314 314 305 312 319 316 305 300 327 357 335 332 320 314 311 303 299 297 296 294 293 296 297 298 296 299 293 298 295
132 140 145 129 119 109 95 40 9 354 341 330 329 327 322 317 318 323 319 314 321 337 355 335 314 308 301 303 305 306 306 301 299 300 297 293 293 297 298 300 295 291 292
132 134 118 115 115 110 88 87 351 337 340 348 348 340 330 327 328 321 321 330 343 339 357 310 300 298 297 300 299 298 299 301 302 296 294 294 293 294 300 297 297 293 291
107 103 111 111 105 97 93 86 63 228 294 314 338 341 343 335 331 328 334 357 332 332 246 274 291 293 294 295 297 296 297 297 299 298 295 293 293 292 296 293 293 293 293
110 107 108 99 92 99 104 96 99 59 323 279 317 340 336 331 331 334 335 163 284 300 303 297 286 289 290 291 292 292 291 292 295 295 292 291 291 292 290 289 289 291 289
99 114 106 107 110 113 105 123 67 26 328 311 315 280 306 331 345 331 317 269 268 275 284 284 289 288 288 290 292 291 292 293 294 293 291 289 289 288 288 289 287 289 288
115 113 115 109 120 130 141 123 111 64 306 311 295 291 311 15 324 304 301 299 292 290 287 285 289 289 289 290 290 291 290 291 290 289 288 290 290 288 286 285 286 284 283
116 120 118 126 128 111 127 116 111 41 328 312 300 294 325 326 291 287 286 284 285 282 283 285 287 286 289 289 290 290 288 288 289 289 288 289 289 287 287 285 284 283 281
121 123 120 109 116 125 86 99 63 6 296 278 281 298 306 295 287 284 284 288 289 289 291 289 288 290 291 290 288 286 285 284 285 287 286 288 288 286 284 284 285 284 276
124 127 124 125 128 119 147 39 343 290 272 280 289 286 285 287 287 289 289 290 291 292 294 292 291 291 294 295 293 288 284 283 284 284 285 282 282 287 283 279 284 292 292
124 123 129 147 143 170 130 9 304 276 273 274 285 272 279 281 286 290 292 292 293 295 296 299 296 296 295 297 293 290 289 292 289 290 288 285 280 281 289 293 296 293 294
119 125 130 131 165 162 153 243 268 268 276 278 274 275 280 287 288 290 294 295 296 300 301 296 297 298 297 297 293 294 299 301 303 298 295 292 296 299 299 296 296 294 292